QPF
0.13 0.14 0.13 0.10 0.08 0.07 0.08 0.07 0.06 0.04 0.03 0.03 0.03 0.03 0.04 0.04 0.04 0.03 0.03 0.02 0.03 0.04 0.04 0.04 0.04 0.04 0.04 0.05 0.06 0.07 0.07 0.07 0.08 0.08 0.08 0.08 0.06 0.08 0.07 0.04 0.03 0.02 0.03
0.06 0.10 0.10 0.07 0.06 0.08 0.09 0.09 0.06 0.04 0.03 0.02 0.02 0.03 0.04 0.03 0.04 0.04 0.03 0.02 0.03 0.04 0.03 0.02 0.04 0.04 0.04 0.06 0.06 0.05 0.05 0.05 0.06 0.08 0.10 0.11 0.09 0.09 0.06 0.02 0.01 0.02 0.02
0.04 0.04 0.05 0.05 0.05 0.08 0.08 0.07 0.04 0.02 0.02 0.02 0.02 0.03 0.03 0.03 0.03 0.03 0.03 0.02 0.02 0.03 0.03 0.03 0.05 0.05 0.05 0.05 0.04 0.04 0.05 0.06 0.07 0.09 0.09 0.07 0.08 0.09 0.04 0.02 0.02 0.03 0.02
0.02 0.03 0.03 0.04 0.03 0.04 0.05 0.04 0.02 0.01 0.01 0.01 0.02 0.02 0.03 0.03 0.03 0.02 0.03 0.03 0.04 0.04 0.04 0.05 0.06 0.06 0.06 0.05 0.03 0.05 0.06 0.06 0.07 0.06 0.03 0.03 0.05 0.07 0.05 0.03 0.03 0.03 0.02
0.02 0.02 0.02 0.03 0.02 0.02 0.02 0.01 0.01 0.01 0.01 0.01 0.02 0.02 0.03 0.03 0.03 0.03 0.04 0.04 0.03 0.04 0.04 0.05 0.05 0.06 0.05 0.05 0.05 0.08 0.08 0.06 0.06 0.03 0.02 0.03 0.04 0.07 0.05 0.03 0.03 0.02 0.02
0.01 0.01 0.02 0.02 0.01 0.01 0.01 0.01 0.01 0.01 0.01 0.01 0.02 0.02 0.03 0.04 0.04 0.03 0.03 0.03 0.03 0.04 0.05 0.05 0.05 0.05 0.04 0.04 0.06 0.07 0.07 0.07 0.04 0.01 0.02 0.03 0.04 0.05 0.03 0.03 0.02 0.02 0.02
0.01 0.01 0.01 0.02 0.01 0.01 0.01 0.00 0.01 0.01 0.00 0.01 0.01 0.02 0.03 0.03 0.03 0.03 0.03 0.03 0.04 0.04 0.05 0.05 0.05 0.04 0.05 0.07 0.08 0.08 0.07 0.06 0.02 0.01 0.02 0.03 0.04 0.04 0.03 0.03 0.03 0.03 0.03
0.01 0.01 0.01 0.01 0.01 0.01 0.01 0.01 0.01 0.00 0.00 0.01 0.01 0.01 0.03 0.04 0.04 0.04 0.04 0.04 0.04 0.04 0.05 0.05 0.04 0.04 0.04 0.07 0.08 0.08 0.08 0.05 0.02 0.01 0.01 0.01 0.03 0.04 0.03 0.02 0.03 0.03 0.05
0.01 0.01 0.01 0.01 0.01 0.01 0.01 0.01 0.02 0.02 0.02 0.01 0.01 0.01 0.02 0.02 0.03 0.03 0.03 0.05 0.03 0.03 0.04 0.03 0.03 0.05 0.05 0.06 0.07 0.07 0.09 0.07 0.02 0.01 0.00 0.01 0.02 0.03 0.03 0.02 0.02 0.02 0.02
0.01 0.01 0.01 0.00 0.00 0.00 0.01 0.02 0.02 0.02 0.02 0.01 0.01 0.01 0.02 0.02 0.03 0.04 0.03 0.03 0.02 0.02 0.03 0.03 0.04 0.06 0.07 0.06 0.06 0.07 0.08 0.06 0.01 0.01 0.01 0.01 0.03 0.04 0.03 0.03 0.02 0.02 0.01
0.01 0.01 0.01 0.01 0.01 0.01 0.01 0.02 0.02 0.02 0.02 0.01 0.01 0.02 0.02 0.01 0.02 0.03 0.03 0.03 0.03 0.03 0.04 0.03 0.04 0.05 0.05 0.05 0.06 0.07 0.05 0.02 0.02 0.01 0.01 0.03 0.05 0.07 0.05 0.02 0.01 0.01 0.01
0.01 0.01 0.01 0.02 0.02 0.02 0.01 0.02 0.02 0.02 0.01 0.00 0.00 0.01 0.01 0.01 0.01 0.02 0.04 0.04 0.04 0.03 0.03 0.04 0.05 0.04 0.03 0.02 0.04 0.04 0.02 0.02 0.02 0.01 0.02 0.04 0.05 0.07 0.07 0.03 0.01 0.01 0.01
0.02 0.02 0.03 0.02 0.02 0.02 0.01 0.01 0.01 0.02 0.01 0.00 0.00 0.00 0.00 0.00 0.00 0.01 0.02 0.03 0.03 0.03 0.01 0.03 0.03 0.01 0.02 0.02 0.03 0.03 0.03 0.02 0.02 0.01 0.02 0.05 0.06 0.07 0.07 0.06 0.04 0.02 0.01
0.02 0.02 0.03 0.02 0.02 0.02 0.01 0.01 0.01 0.01 0.02 0.01 0.01 0.01 0.01 0.01 0.01 0.01 0.01 0.01 0.01 0.01 0.01 0.00 0.00 0.01 0.01 0.02 0.03 0.02 0.01 0.02 0.03 0.02 0.02 0.03 0.04 0.06 0.07 0.07 0.07 0.04 0.03
0.03 0.02 0.02 0.03 0.03 0.02 0.01 0.01 0.01 0.01 0.01 0.02 0.02 0.00 0.01 0.01 0.01 0.00 0.00 0.00 0.00 0.00 0.01 0.01 0.00 0.01 0.01 0.01 0.02 0.02 0.01 0.01 0.02 0.02 0.03 0.04 0.06 0.05 0.05 0.06 0.06 0.06 0.05
0.03 0.03 0.02 0.04 0.05 0.04 0.03 0.02 0.02 0.01 0.01 0.01 0.01 0.00 0.00 0.01 0.01 0.01 0.00 0.00 0.00 0.00 0.00 0.01 0.01 0.01 0.01 0.02 0.02 0.02 0.02 0.02 0.02 0.02 0.02 0.04 0.05 0.05 0.05 0.07 0.08 0.09 0.08
0.03 0.03 0.05 0.05 0.06 0.05 0.05 0.05 0.04 0.03 0.01 0.01 0.01 0.01 0.00 0.00 0.01 0.00 0.00 0.00 0.00 0.00 0.01 0.01 0.01 0.01 0.02 0.02 0.02 0.02 0.02 0.02 0.01 0.01 0.02 0.03 0.03 0.04 0.06 0.07 0.08 0.08 0.08
0.04 0.04 0.08 0.06 0.07 0.07 0.06 0.05 0.04 0.03 0.03 0.03 0.03 0.03 0.01 0.00 0.00 0.00 0.01 0.00 0.01 0.01 0.01 0.01 0.02 0.03 0.03 0.03 0.03 0.03 0.02 0.02 0.02 0.01 0.01 0.02 0.02 0.03 0.04 0.06 0.06 0.06 0.06
0.04 0.04 0.06 0.07 0.07 0.08 0.06 0.06 0.05 0.04 0.04 0.05 0.05 0.05 0.04 0.02 0.02 0.01 0.01 0.01 0.01 0.02 0.01 0.01 0.03 0.04 0.04 0.04 0.05 0.04 0.03 0.03 0.02 0.01 0.01 0.01 0.02 0.03 0.04 0.04 0.06 0.07 0.07
0.03 0.03 0.05 0.07 0.06 0.08 0.07 0.06 0.06 0.05 0.05 0.04 0.06 0.08 0.08 0.07 0.06 0.03 0.02 0.02 0.02 0.03 0.03 0.03 0.04 0.04 0.03 0.05 0.05 0.05 0.04 0.03 0.02 0.01 0.02 0.02 0.03 0.03 0.03 0.04 0.04 0.04 0.07
0.02 0.02 0.04 0.06 0.06 0.06 0.06 0.06 0.06 0.05 0.04 0.03 0.05 0.08 0.08 0.09 0.09 0.06 0.05 0.04 0.03 0.03 0.04 0.06 0.05 0.04 0.05 0.05 0.06 0.05 0.04 0.03 0.02 0.02 0.02 0.03 0.03 0.03 0.04 0.03 0.03 0.03 0.04
0.02 0.01 0.03 0.04 0.05 0.05 0.05 0.05 0.06 0.05 0.04 0.05 0.07 0.08 0.07 0.08 0.08 0.06 0.05 0.05 0.04 0.03 0.05 0.06 0.05 0.05 0.07 0.05 0.05 0.07 0.05 0.04 0.02 0.03 0.03 0.03 0.03 0.04 0.04 0.03 0.04 0.04 0.03
0.01 0.01 0.02 0.03 0.05 0.06 0.07 0.07 0.07 0.06 0.06 0.07 0.09 0.10 0.08 0.07 0.08 0.08 0.07 0.08 0.09 0.07 0.07 0.07 0.06 0.05 0.05 0.04 0.04 0.06 0.04 0.02 0.01 0.02 0.02 0.01 0.02 0.03 0.03 0.02 0.02 0.03 0.05
0.01 0.02 0.02 0.03 0.05 0.07 0.09 0.08 0.07 0.06 0.07 0.08 0.09 0.08 0.08 0.08 0.09 0.12 0.11 0.10 0.11 0.08 0.07 0.07 0.06 0.05 0.03 0.03 0.03 0.03 0.03 0.03 0.02 0.01 0.01 0.01 0.01 0.02 0.02 0.01 0.02 0.03 0.05
0.01 0.02 0.03 0.03 0.05 0.08 0.09 0.08 0.08 0.08 0.09 0.10 0.09 0.08 0.07 0.08 0.08 0.09 0.10 0.10 0.11 0.10 0.08 0.08 0.07 0.06 0.05 0.05 0.04 0.03 0.04 0.03 0.02 0.02 0.01 0.00 0.00 0.01 0.01 0.01 0.01 0.03 0.03
0.01 0.02 0.04 0.03 0.04 0.07 0.08 0.08 0.09 0.09 0.10 0.10 0.07 0.05 0.05 0.05 0.07 0.08 0.08 0.08 0.08 0.09 0.08 0.07 0.09 0.08 0.07 0.06 0.04 0.03 0.03 0.02 0.03 0.03 0.02 0.02 0.01 0.01 0.01 0.01 0.01 0.02 0.02
MSLP
1014.03 1013.66 1013.46 1013.43 1013.56 1013.79 1014.05 1014.28 1014.44 1014.51 1014.51 1014.47 1014.45 1014.48 1014.58 1014.77 1015.00 1015.26 1015.48 1015.65 1015.76 1015.80 1015.80 1015.80 1015.83 1015.92 1016.06 1016.24 1016.45 1016.66 1016.85 1017.02 1017.16 1017.30 1017.46 1017.66 1017.90 1018.17 1018.47 1018.78 1019.05 1019.29 1019.49
1013.90 1013.65 1013.55 1013.61 1013.80 1014.07 1014.35 1014.57 1014.72 1014.77 1014.75 1014.70 1014.69 1014.73 1014.86 1015.06 1015.31 1015.56 1015.77 1015.92 1016.00 1016.01 1016.00 1016.00 1016.03 1016.12 1016.26 1016.45 1016.65 1016.86 1017.05 1017.21 1017.36 1017.52 1017.70 1017.92 1018.18 1018.47 1018.77 1019.07 1019.34 1019.57 1019.77
1013.77 1013.62 1013.61 1013.74 1013.98 1014.29 1014.58 1014.82 1014.96 1015.01 1015.00 1014.96 1014.96 1015.02 1015.15 1015.34 1015.57 1015.79 1015.97 1016.08 1016.13 1016.13 1016.12 1016.13 1016.17 1016.28 1016.44 1016.64 1016.85 1017.06 1017.25 1017.43 1017.61 1017.79 1018.00 1018.25 1018.52 1018.82 1019.12 1019.40 1019.66 1019.88 1020.07
1013.70 1013.62 1013.66 1013.83 1014.11 1014.44 1014.76 1015.01 1015.17 1015.24 1015.24 1015.23 1015.23 1015.30 1015.42 1015.59 1015.78 1015.95 1016.08 1016.16 1016.18 1016.18 1016.18 1016.22 1016.30 1016.45 1016.64 1016.86 1017.08 1017.31 1017.51 1017.71 1017.91 1018.13 1018.37 1018.64 1018.93 1019.23 1019.51 1019.78 1020.01 1020.22 1020.40
1013.72 1013.66 1013.72 1013.92 1014.21 1014.55 1014.88 1015.15 1015.33 1015.42 1015.45 1015.46 1015.48 1015.54 1015.65 1015.78 1015.93 1016.05 1016.13 1016.18 1016.20 1016.21 1016.25 1016.33 1016.46 1016.66 1016.89 1017.13 1017.38 1017.62 1017.85 1018.07 1018.29 1018.54 1018.81 1019.10 1019.39 1019.68 1019.94 1020.18 1020.38 1020.57 1020.75
1013.83 1013.78 1013.83 1014.02 1014.31 1014.64 1014.97 1015.24 1015.44 1015.55 1015.61 1015.64 1015.68 1015.74 1015.83 1015.94 1016.04 1016.12 1016.18 1016.21 1016.23 1016.27 1016.36 1016.50 1016.70 1016.94 1017.21 1017.49 1017.75 1018.00 1018.24 1018.48 1018.73 1019.00 1019.29 1019.59 1019.89 1020.15 1020.39 1020.58 1020.75 1020.91 1021.08
1014.04 1013.97 1014.01 1014.18 1014.44 1014.75 1015.06 1015.32 1015.52 1015.64 1015.71 1015.77 1015.82 1015.90 1015.98 1016.07 1016.15 1016.21 1016.25 1016.28 1016.33 1016.42 1016.56 1016.76 1017.02 1017.31 1017.61 1017.91 1018.18 1018.43 1018.67 1018.92 1019.19 1019.47 1019.78 1020.08 1020.37 1020.61 1020.81 1020.97 1021.10 1021.23 1021.39
1014.31 1014.23 1014.26 1014.41 1014.64 1014.92 1015.19 1015.41 1015.58 1015.70 1015.78 1015.85 1015.93 1016.01 1016.11 1016.21 1016.29 1016.35 1016.39 1016.44 1016.52 1016.65 1016.85 1017.10 1017.41 1017.73 1018.05 1018.35 1018.62 1018.87 1019.10 1019.35 1019.62 1019.91 1020.22 1020.53 1020.80 1021.02 1021.19 1021.31 1021.41 1021.52 1021.66
1014.62 1014.55 1014.58 1014.72 1014.92 1015.15 1015.37 1015.55 1015.67 1015.77 1015.84 1015.92 1016.02 1016.14 1016.27 1016.39 1016.49 1016.57 1016.63 1016.71 1016.82 1016.98 1017.21 1017.50 1017.83 1018.17 1018.49 1018.78 1019.04 1019.26 1019.48 1019.72 1019.98 1020.28 1020.59 1020.89 1021.16 1021.36 1021.51 1021.60 1021.67 1021.76 1021.90
1014.92 1014.89 1014.95 1015.09 1015.28 1015.46 1015.62 1015.74 1015.82 1015.87 1015.94 1016.03 1016.15 1016.31 1016.48 1016.64 1016.77 1016.88 1016.97 1017.07 1017.20 1017.38 1017.62 1017.92 1018.25 1018.58 1018.89 1019.16 1019.39 1019.59 1019.79 1020.01 1020.27 1020.57 1020.88 1021.18 1021.44 1021.64 1021.77 1021.85 1021.91 1021.99 1022.11
1015.17 1015.22 1015.33 1015.50 1015.68 1015.83 1015.94 1015.99 1016.02 1016.04 1016.09 1016.19 1016.34 1016.54 1016.76 1016.97 1017.15 1017.29 1017.40 1017.51 1017.63 1017.81 1018.04 1018.31 1018.62 1018.93 1019.21 1019.46 1019.66 1019.84 1020.03 1020.23 1020.48 1020.77 1021.08 1021.38 1021.64 1021.84 1021.98 1022.06 1022.12 1022.20 1022.32
1015.35 1015.49 1015.68 1015.89 1016.08 1016.21 1016.28 1016.29 1016.27 1016.26 1016.30 1016.42 1016.61 1016.85 1017.12 1017.38 1017.60 1017.76 1017.88 1017.98 1018.09 1018.24 1018.43 1018.67 1018.94 1019.22 1019.47 1019.69 1019.88 1020.04 1020.21 1020.40 1020.64 1020.92 1021.22 1021.52 1021.79 1022.00 1022.15 1022.25 1022.32 1022.41 1022.53
1015.43 1015.67 1015.94 1016.20 1016.41 1016.54 1016.59 1016.57 1016.53 1016.51 1016.56 1016.70 1016.92 1017.21 1017.53 1017.83 1018.08 1018.26 1018.38 1018.46 1018.54 1018.64 1018.79 1018.99 1019.22 1019.46 1019.69 1019.89 1020.06 1020.21 1020.36 1020.54 1020.76 1021.03 1021.32 1021.62 1021.89 1022.12 1022.30 1022.42 1022.51 1022.61 1022.75
1015.41 1015.73 1016.07 1016.39 1016.63 1016.77 1016.82 1016.80 1016.76 1016.75 1016.82 1016.99 1017.25 1017.58 1017.94 1018.27 1018.54 1018.73 1018.84 1018.91 1018.95 1019.02 1019.12 1019.27 1019.47 1019.68 1019.89 1020.08 1020.24 1020.39 1020.53 1020.69 1020.89 1021.13 1021.40 1021.69 1021.96 1022.20 1022.40 1022.55 1022.68 1022.80 1022.94
1015.30 1015.68 1016.07 1016.42 1016.69 1016.86 1016.93 1016.94 1016.93 1016.95 1017.05 1017.25 1017.55 1017.91 1018.29 1018.64 1018.93 1019.13 1019.24 1019.29 1019.31 1019.34 1019.41 1019.54 1019.70 1019.90 1020.10 1020.29 1020.45 1020.59 1020.72 1020.87 1021.04 1021.24 1021.48 1021.74 1022.00 1022.24 1022.46 1022.64 1022.79 1022.93 1023.08
1015.14 1015.53 1015.93 1016.30 1016.60 1016.80 1016.91 1016.96 1017.00 1017.07 1017.21 1017.44 1017.76 1018.14 1018.54 1018.90 1019.20 1019.40 1019.52 1019.57 1019.58 1019.61 1019.67 1019.78 1019.94 1020.13 1020.33 1020.52 1020.69 1020.83 1020.95 1021.07 1021.20 1021.36 1021.55 1021.76 1022.00 1022.23 1022.45 1022.65 1022.82 1022.98 1023.14
1014.95 1015.33 1015.72 1016.08 1016.39 1016.63 1016.79 1016.90 1016.99 1017.11 1017.30 1017.55 1017.89 1018.27 1018.66 1019.02 1019.32 1019.53 1019.67 1019.74 1019.77 1019.82 1019.89 1020.00 1020.17 1020.36 1020.57 1020.77 1020.94 1021.08 1021.18 1021.27 1021.36 1021.47 1021.60 1021.77 1021.95 1022.16 1022.37 1022.57 1022.75 1022.92 1023.08
1014.78 1015.12 1015.48 1015.83 1016.15 1016.41 1016.62 1016.80 1016.95 1017.13 1017.34 1017.61 1017.93 1018.29 1018.66 1019.01 1019.30 1019.53 1019.70 1019.80 1019.88 1019.96 1020.06 1020.20 1020.37 1020.58 1020.79 1021.00 1021.17 1021.31 1021.40 1021.47 1021.52 1021.57 1021.64 1021.74 1021.88 1022.03 1022.21 1022.40 1022.58 1022.75 1022.91
1014.67 1014.97 1015.29 1015.62 1015.93 1016.23 1016.49 1016.73 1016.94 1017.16 1017.39 1017.65 1017.94 1018.26 1018.59 1018.91 1019.19 1019.44 1019.63 1019.79 1019.92 1020.04 1020.18 1020.34 1020.53 1020.75 1020.97 1021.18 1021.36 1021.49 1021.58 1021.63 1021.65 1021.66 1021.67 1021.71 1021.77 1021.87 1022.00 1022.15 1022.31 1022.47 1022.62
1014.63 1014.89 1015.17 1015.48 1015.81 1016.13 1016.45 1016.74 1017.01 1017.25 1017.48 1017.72 1017.96 1018.22 1018.49 1018.76 1019.03 1019.28 1019.51 1019.71 1019.90 1020.07 1020.24 1020.43 1020.63 1020.85 1021.07 1021.28 1021.46 1021.60 1021.69 1021.74 1021.74 1021.72 1021.68 1021.66 1021.66 1021.69 1021.75 1021.85 1021.97 1022.10 1022.23
1014.62 1014.87 1015.14 1015.45 1015.79 1016.15 1016.51 1016.86 1017.17 1017.43 1017.66 1017.85 1018.03 1018.21 1018.41 1018.63 1018.87 1019.12 1019.37 1019.61 1019.84 1020.05 1020.25 1020.45 1020.65 1020.86 1021.07 1021.27 1021.46 1021.62 1021.73 1021.79 1021.79 1021.75 1021.69 1021.61 1021.54 1021.50 1021.49 1021.52 1021.58 1021.67 1021.78
1014.62 1014.87 1015.15 1015.47 1015.84 1016.25 1016.66 1017.06 1017.41 1017.68 1017.89 1018.04 1018.15 1018.26 1018.38 1018.54 1018.74 1018.98 1019.24 1019.51 1019.76 1020.00 1020.21 1020.40 1020.59 1020.78 1020.97 1021.17 1021.37 1021.54 1021.68 1021.77 1021.79 1021.76 1021.68 1021.56 1021.44 1021.32 1021.24 1021.19 1021.18 1021.22 1021.29
1014.55 1014.85 1015.16 1015.51 1015.92 1016.37 1016.84 1017.28 1017.66 1017.95 1018.15 1018.26 1018.31 1018.34 1018.39 1018.49 1018.65 1018.87 1019.13 1019.40 1019.66 1019.90 1020.11 1020.28 1020.44 1020.60 1020.78 1020.97 1021.17 1021.37 1021.55 1021.68 1021.74 1021.73 1021.64 1021.51 1021.33 1021.15 1020.99 1020.87 1020.79 1020.77 1020.79
1014.39 1014.74 1015.09 1015.48 1015.94 1016.44 1016.95 1017.44 1017.86 1018.16 1018.35 1018.43 1018.44 1018.42 1018.41 1018.46 1018.58 1018.77 1019.01 1019.28 1019.53 1019.76 1019.94 1020.09 1020.21 1020.34 1020.49 1020.67 1020.89 1021.11 1021.33 1021.51 1021.61 1021.63 1021.56 1021.41 1021.21 1020.98 1020.76 1020.57 1020.43 1020.35 1020.32
1014.12 1014.51 1014.91 1015.34 1015.83 1016.37 1016.93 1017.46 1017.91 1018.24 1018.43 1018.50 1018.48 1018.42 1018.38 1018.39 1018.47 1018.64 1018.86 1019.11 1019.35 1019.55 1019.71 1019.82 1019.91 1020.01 1020.14 1020.31 1020.53 1020.78 1021.03 1021.25 1021.40 1021.46 1021.41 1021.26 1021.05 1020.79 1020.53 1020.29 1020.10 1019.98 1019.91
1013.76 1014.19 1014.61 1015.07 1015.59 1016.16 1016.74 1017.30 1017.78 1018.13 1018.34 1018.41 1018.38 1018.31 1018.24 1018.23 1018.29 1018.43 1018.63 1018.86 1019.08 1019.26 1019.39 1019.48 1019.54 1019.61 1019.72 1019.88 1020.11 1020.38 1020.65 1020.91 1021.09 1021.18 1021.16 1021.03 1020.82 1020.56 1020.28 1020.03 1019.82 1019.67 1019.58
Thickness
5769 5771 5770 5769 5768 5767 5767 5767 5766 5766 5767 5767 5767 5767 5766 5766 5765 5765 5764 5763 5763 5763 5762 5761 5760 5759 5758 5757 5755 5754 5752 5750 5748 5746 5745 5743 5742 5740 5739 5738 5736 5735 5734
5773 5771 5770 5768 5767 5766 5766 5765 5765 5765 5765 5765 5765 5765 5764 5764 5763 5763 5762 5762 5761 5761 5760 5759 5758 5757 5756 5755 5753 5752 5750 5748 5746 5745 5743 5741 5740 5738 5737 5736 5735 5734 5733
5773 5771 5769 5767 5766 5765 5764 5764 5763 5763 5763 5763 5763 5763 5763 5762 5762 5761 5760 5760 5759 5759 5758 5757 5756 5755 5754 5753 5752 5750 5748 5747 5745 5743 5742 5740 5738 5737 5736 5735 5734 5732 5731
5772 5770 5768 5766 5764 5763 5763 5762 5762 5761 5761 5761 5761 5761 5761 5760 5760 5759 5759 5758 5758 5757 5756 5755 5754 5753 5752 5751 5750 5748 5747 5745 5743 5742 5740 5738 5737 5736 5735 5734 5732 5731 5730
5771 5769 5767 5765 5763 5762 5761 5761 5760 5760 5760 5759 5759 5759 5759 5758 5758 5758 5757 5756 5756 5755 5755 5754 5752 5751 5750 5749 5748 5747 5745 5743 5742 5740 5739 5737 5736 5735 5734 5732 5731 5730 5728
5769 5767 5766 5764 5762 5761 5760 5759 5759 5758 5758 5758 5757 5757 5757 5757 5757 5756 5755 5755 5754 5753 5753 5752 5750 5750 5748 5747 5746 5745 5744 5742 5740 5738 5737 5736 5734 5734 5733 5732 5730 5729 5727
5768 5766 5765 5763 5761 5759 5758 5757 5757 5757 5756 5756 5755 5755 5755 5755 5755 5754 5753 5753 5752 5752 5751 5750 5748 5748 5746 5745 5744 5743 5742 5740 5739 5737 5736 5734 5733 5733 5732 5730 5729 5728 5726
5767 5765 5763 5761 5760 5758 5757 5756 5755 5755 5754 5754 5754 5753 5753 5753 5753 5752 5752 5751 5750 5750 5749 5748 5747 5746 5745 5744 5743 5742 5741 5739 5737 5736 5734 5733 5732 5731 5730 5729 5728 5726 5725
5766 5763 5762 5760 5758 5757 5755 5754 5754 5753 5752 5752 5752 5752 5751 5751 5751 5750 5750 5749 5749 5748 5747 5746 5745 5744 5743 5743 5742 5741 5740 5739 5737 5735 5734 5732 5732 5731 5729 5728 5727 5725 5724
5764 5762 5760 5758 5757 5755 5754 5753 5752 5751 5750 5750 5750 5750 5750 5749 5749 5748 5747 5747 5747 5747 5746 5745 5744 5743 5742 5741 5741 5740 5739 5737 5736 5734 5733 5732 5731 5730 5729 5727 5726 5724 5723
5761 5759 5758 5757 5755 5754 5753 5751 5750 5749 5749 5748 5748 5748 5748 5747 5747 5746 5746 5746 5746 5745 5745 5744 5743 5742 5741 5740 5740 5739 5738 5736 5735 5734 5732 5731 5730 5729 5728 5726 5725 5724 5722
5758 5758 5757 5755 5753 5752 5751 5750 5748 5748 5747 5746 5746 5746 5745 5745 5745 5745 5744 5744 5744 5744 5744 5743 5742 5741 5740 5739 5739 5738 5737 5736 5734 5733 5732 5731 5730 5729 5727 5726 5724 5723 5722
5760 5758 5756 5754 5753 5751 5750 5748 5747 5746 5745 5744 5744 5744 5744 5744 5743 5743 5743 5743 5743 5743 5742 5741 5740 5739 5739 5739 5738 5737 5736 5735 5734 5733 5732 5731 5730 5728 5727 5725 5724 5722 5721
5760 5759 5757 5755 5752 5750 5748 5747 5746 5744 5744 5743 5743 5743 5742 5742 5742 5742 5742 5742 5741 5741 5741 5740 5739 5739 5738 5738 5737 5737 5736 5735 5733 5733 5732 5731 5730 5728 5727 5725 5723 5722 5721
5762 5760 5758 5756 5752 5750 5747 5746 5745 5744 5743 5743 5742 5742 5741 5741 5741 5741 5741 5741 5740 5740 5740 5739 5739 5738 5738 5737 5737 5736 5735 5734 5733 5733 5732 5731 5730 5728 5727 5725 5723 5722 5721
5764 5762 5760 5757 5753 5750 5748 5746 5745 5744 5743 5742 5742 5742 5741 5741 5741 5741 5741 5740 5740 5740 5739 5739 5738 5737 5737 5736 5736 5736 5735 5734 5733 5733 5732 5731 5730 5728 5727 5725 5724 5722 5721
5768 5765 5761 5758 5755 5751 5749 5746 5745 5745 5743 5742 5742 5742 5742 5741 5741 5740 5740 5740 5740 5739 5739 5738 5737 5736 5736 5735 5735 5735 5734 5734 5733 5733 5731 5731 5729 5728 5727 5726 5724 5723 5721
5771 5767 5763 5761 5757 5754 5751 5748 5746 5745 5744 5743 5742 5742 5742 5741 5741 5740 5740 5740 5740 5739 5738 5737 5736 5735 5734 5734 5733 5734 5734 5733 5733 5732 5731 5730 5729 5728 5727 5726 5725 5723 5722
5775 5770 5765 5762 5759 5756 5753 5750 5747 5745 5744 5744 5743 5743 5742 5741 5740 5740 5740 5740 5739 5739 5738 5738 5736 5735 5733 5733 5732 5733 5733 5733 5733 5732 5731 5731 5730 5729 5728 5727 5726 5724 5722
5777 5772 5767 5764 5760 5757 5753 5750 5747 5745 5745 5744 5744 5743 5743 5742 5741 5740 5740 5740 5739 5738 5738 5737 5736 5735 5733 5733 5732 5732 5732 5732 5732 5732 5732 5731 5730 5729 5728 5727 5726 5724 5723
5778 5774 5769 5764 5762 5758 5753 5749 5746 5744 5744 5744 5744 5744 5743 5743 5742 5741 5741 5740 5740 5739 5738 5737 5735 5733 5732 5731 5729 5727 5729 5731 5732 5732 5731 5731 5730 5729 5728 5727 5726 5724 5723
5781 5776 5772 5767 5764 5761 5757 5753 5749 5747 5745 5745 5744 5744 5744 5743 5742 5742 5741 5740 5740 5739 5737 5736 5735 5732 5731 5731 5728 5723 5721 5724 5729 5732 5731 5730 5730 5729 5728 5727 5726 5724 5723
5784 5780 5776 5771 5767 5762 5758 5753 5750 5746 5744 5743 5742 5743 5743 5743 5743 5742 5741 5741 5740 5739 5737 5736 5735 5733 5730 5729 5729 5725 5719 5717 5722 5727 5729 5729 5729 5728 5727 5726 5726 5724 5723
5788 5784 5779 5774 5769 5764 5759 5755 5750 5745 5742 5742 5742 5742 5743 5743 5743 5742 5742 5741 5740 5739 5738 5737 5737 5735 5732 5728 5728 5728 5727 5726 5720 5720 5724 5726 5727 5727 5726 5726 5725 5724 5723
5791 5786 5781 5775 5770 5766 5761 5757 5752 5747 5745 5744 5743 5741 5741 5742 5742 5742 5741 5740 5739 5739 5738 5738 5737 5735 5734 5731 5729 5728 5726 5724 5723 5719 5718 5721 5723 5725 5726 5725 5724 5723 5722
5792 5787 5782 5776 5771 5768 5763 5759 5754 5750 5746 5743 5741 5740 5740 5740 5741 5741 5741 5740 5739 5739 5738 5737 5737 5736 5735 5733 5731 5730 5728 5725 5722 5721 5718 5719 5719 5722 5724 5724 5723 5722 5721